Terminal Aerodrome Forecast
Issued by NWS

Home | Current Version | Previous Version | Text Only | Print | Product List | Glossary On
Versions: 1 2 3 4 5 6 7 8 9 10 11 12 13 14 15 16 17 18 19 20
709
FTPA31 PHFO 241856 AAA
TAFHNY
TAF AMD
PHNY 241856Z 2419/2518 16020G30KT 2SM -RA SCT010 BKN025
      TEMPO 2419/2422 1/4SM -RA FG SCT005 BKN014 OVC025
     FM250600 16011G20KT P6SM SCT010 BKN035=

USA.gov is the U.S. government's official web portal to all federal, state and local government web resources and services.